Home   Weather   Wailuku   Past weeks

Flag for USA Past Weather in Wailuku, Hawaii, USA — Yesterday and Last 2 Weeks

Now
65 °F

Passing clouds.


Feels Like: 65 °F
Forecast: 63 / 78 °F
Wind: 5 mph from South

Location: Kahului Airport

Current Time: Jan 20, 2017 at 8:35:34 am

Latest Report: Jan 20, 2017 at 7:54 am


Visibility: 10 mi

Pressure: 30.14 "Hg

Humidity: 81%

Dew Point: 59 °F

Location of WailukuLocation

Past Weather in Wailuku — Graph

°F

Wailuku Temperature Yesterday

Maximum temperature yesterday: 81 °F (at 11:54 am)
Minimum temperature yesterday: 68 °F (at 2:54 am)
Average temperature yesterday: 74 °F

High & Low Weather Summary for the Past Weeks

 TemperatureHumidityPressure
High86 °F (Jan 11, 1:54 pm)94% (Jan 12, 5:54 am)30.19 "Hg (Jan 12, 5:54 am)
Low59 °F (Jan 5, 6:54 am)47% (Jan 7, 11:54 am)29.94 "Hg (Jan 7, 3:54 am)
Average73 °F70%30.05 "Hg
* Reported Jan 5 6:54 am — Jan 20 6:54 am, Wailuku, Weather by CustomWeather, © 2017

Note: Actual official high and low records may vary slightly from our data, if they occured in-between our weather recording intervals... More about our weather records

Advertising

Wailuku Weather History for the Previous 24 Hours

Scroll right to see more
 ConditionsComfort  
Time TempWeatherWind HumidityBarometerVisibility
6:54 am
Fri, Jan 20
61 °FPassing clouds.5 mph83%30.13 "Hg10 mi
5:54 am62 °FClear.5 mph80%30.11 "Hg10 mi
4:54 am63 °FClear.7 mph81%30.10 "Hg10 mi
3:54 am63 °FClear.5 mph81%30.10 "Hg10 mi
2:54 am64 °FPassing clouds.6 mph81%30.11 "Hg10 mi
1:54 am66 °FClear.6 mph78%30.13 "Hg10 mi
12:54 am69 °FPassing clouds.6 mph79%30.14 "Hg10 mi
11:54 pm
Thu, Jan 19
71 °FOvercast.3 mph76%30.15 "Hg10 mi
10:54 pm73 °FPartly cloudy.6 mph74%30.16 "Hg10 mi
9:54 pm73 °FPassing clouds.5 mph71%30.16 "Hg10 mi
8:54 pm73 °FPassing clouds.15 mph79%30.14 "Hg10 mi
7:54 pm74 °FPassing clouds.13 mph69%30.14 "Hg10 mi
6:54 pm75 °FPartly cloudy.13 mph66%30.13 "Hg10 mi
5:54 pm75 °FBroken clouds.16 mph64%30.10 "Hg10 mi
4:54 pm77 °FBroken clouds.16 mph62%30.09 "Hg10 mi
3:54 pm79 °FBroken clouds.16 mph62%30.09 "Hg10 mi
2:54 pm80 °FBroken clouds.17 mph54%30.09 "Hg10 mi
1:54 pm80 °FBroken clouds.17 mph52%30.10 "Hg10 mi
12:54 pm81 °FBroken clouds.17 mph53%30.12 "Hg10 mi
11:54 am81 °FScattered clouds.14 mph53%30.16 "Hg10 mi
10:54 am80 °FPartly sunny.16 mph52%30.19 "Hg10 mi
9:54 am79 °FScattered clouds.6 mph58%30.19 "Hg10 mi
8:54 am75 °FScattered clouds.5 mph62%30.19 "Hg10 mi
Weather by CustomWeather, © 2017

See weather overviewHow to use our weather pages